EW7074 Weather Reports


Display with metric or nautical units.
time (UTC)temp
F
wind
direction
speed
MPH
gust
MPH
rain 1hr
in
rain 24hr
in
rain mn
in
humidity
%
barometer
mb
20260503203655 65 113 0.0 4.0 0.00 0.00 0.00 60 1019.1
20260503203153 65 135 0.0 4.0 0.00 0.00 0.00 60 1019.1
20260503202654 65 116 0.0 3.0 0.00 0.00 0.00 60 1019.0
20260503202150 65 153 1.0 4.0 0.00 0.00 0.00 59 1019.0
20260503201921 66 93 1.0 5.0 0.00 0.00 0.00 59 1019.1
20260503201149 66 135 1.0 8.0 0.00 0.00 0.00 58 1019.1
20260503200920 66 130 1.0 8.0 0.00 0.00 0.00 58 1019.2
20260503200147 66 119 1.0 6.0 0.00 0.00 0.00 57 1019.2
20260503195916 67 128 1.0 5.0 0.00 0.00 0.00 57 1019.3
20260503195151 67 100 1.0 5.0 0.00 0.00 0.00 57 1019.2
20260503194645 67 82 1.0 6.0 0.00 0.00 0.00 57 1019.3
20260503194143 67 124 2.0 6.0 0.00 0.00 0.00 57 1019.3
20260503193644 67 96 1.0 6.0 0.00 0.00 0.00 57 1019.2
20260503193141 67 146 1.0 6.0 0.00 0.00 0.00 57 1019.2
20260503192911 68 89 1.0 6.0 0.00 0.00 0.00 56 1019.2
20260503192139 68 131 1.0 4.0 0.00 0.00 0.00 56 1019.1
20260503191639 68 141 1.0 4.0 0.00 0.00 0.00 55 1019.2
20260503191140 68 118 1.0 4.0 0.00 0.00 0.00 55 1019.3
20260503190637 68 122 1.0 5.0 0.00 0.00 0.00 54 1019.3
20260503190137 69 135 1.0 5.0 0.00 0.00 0.00 54 1019.4
20260503185636 69 88 1.0 5.0 0.00 0.00 0.00 53 1019.5
20260503185135 69 95 0.0 5.0 0.00 0.00 0.00 53 1019.4
20260503184906 69 77 0.0 3.0 0.00 0.00 0.00 53 1019.5
20260503184135 70 123 1.0 6.0 0.00 0.00 0.00 53 1019.5
20260503183634 70 107 1.0 6.0 0.00 0.00 0.00 51 1019.6
20260503183133 70 56 0.0 3.0 0.00 0.00 0.00 50 1019.6
20260503182633 70 148 0.0 3.0 0.00 0.00 0.00 51 1019.7
20260503182133 70 139 0.0 2.0 0.00 0.00 0.00 51 1019.8
20260503181631 70 213 0.0 3.0 0.00 0.00 0.00 50 1019.9
20260503181131 70 202 0.0 3.0 0.00 0.00 0.00 51 1019.9
20260503180632 71 154 0.0 0.0 0.00 0.00 0.00 49 1020.0
20260503180129 70 316 0.0 2.0 0.00 0.00 0.00 47 1020.1
20260503175629 70 316 0.0 2.0 0.00 0.00 0.00 46 1020.1
20260503175127 70 282 0.0 1.0 0.00 0.00 0.00 48 1020.1
20260503174852 69 265 0.0 1.0 0.00 0.00 0.00 47 1020.3
20260503174351 69 220 0.0 0.0 0.00 0.00 0.00 49 1020.4
20260503173617 69 146 0.0 0.0 0.00 0.00 0.00 47 1020.5
20260503173341 69 106 0.0 2.0 0.00 0.00 0.00 47 1020.5
20260503172608 69 110 0.0 3.0 0.00 0.00 0.00 48 1020.6
20260503172114 69 312 0.0 3.0 0.00 0.00 0.00 47 1020.6
20260503172107 69 119 1.0 3.0 0.00 0.00 0.00 48 1020.6
20260503171102 69 4 0.0 4.0 0.00 0.00 0.00 48 1020.7
20260503170556 69 24 0.0 4.0 0.00 0.00 0.00 48 1020.7
20260503150803 64 81 1.0 4.0 0.00 0.00 0.00 52 1023.0
20260503150256 64 85 0.0 2.0 0.00 0.00 0.00 53 1023.2
20260503130835 59 59 0.0 0.0 0.00 0.02 0.00 69 1024.8
20260503130316 58 36 0.0 0.0 0.00 0.02 0.00 70 1024.8
20260503120135 52 81 0.0 0.0 0.00 0.02 0.00 83 1024.9
20260503110625 49 90 5.0 7.0 0.00 0.04 0.00 88 1024.6
20260503110340 49 71 5.0 7.0 0.00 0.04 0.00 89 1024.6
20260503081504 50 75 3.0 5.0 0.00 0.04 0.00 89 1023.6
20260503081001 50 74 3.0 5.0 0.00 0.04 0.00 89 1023.6
20260503080719 50 102 3.0 4.0 0.00 0.04 0.00 89 1023.6
20260503072927 52 111 1.0 3.0 0.00 0.04 0.00 87 1023.5
20260503072416 52 111 1.0 3.0 0.00 0.04 0.00 87 1023.5
20260503071907 52 111 1.0 3.0 0.00 0.04 0.00 86 1023.5
20260503071355 52 111 1.0 2.0 0.00 0.04 0.00 86 1023.5
20260503070844 52 111 1.0 2.0 0.00 0.04 0.00 86 1023.5
20260503070558 53 111 1.0 3.0 0.00 0.04 0.00 85 1023.5
20260503060133 55 111 0.0 2.0 0.00 0.04 0.00 83 1023.7
20260503055058 55 111 0.0 1.0 0.00 0.04 0.00 83 1023.8
20260503054816 55 111 0.0 1.0 0.00 0.04 0.00 83 1023.7
20260503054307 55 111 0.0 0.0 0.00 0.04 0.00 82 1023.8
20260503053755 56 111 0.0 1.0 0.00 0.04 0.00 81 1023.8
20260503053014 56 111 0.0 1.0 0.00 0.04 0.00 81 1023.7
20260503052503 56 111 0.0 0.0 0.00 0.04 0.00 80 1023.8
20260503052219 57 111 0.0 0.0 0.00 0.04 0.00 80 1023.7
20260503051448 57 111 0.0 0.0 0.00 0.04 0.00 78 1023.8
20260503051442 57 111 0.0 0.0 0.00 0.04 0.00 79 1023.7
20260503050440 57 111 0.0 0.0 0.00 0.04 0.00 77 1023.8
20260503045939 57 111 0.0 0.0 0.00 0.04 0.00 77 1023.8
20260503045424 57 111 0.0 0.0 0.00 0.04 0.00 77 1023.8
20260503044916 57 111 0.0 0.0 0.00 0.04 0.00 77 1023.8
20260503044404 57 111 0.0 0.0 0.00 0.04 0.00 77 1023.9
20260503043852 57 111 0.0 2.0 0.00 0.04 0.00 78 1023.8
20260503043342 57 111 0.0 3.0 0.00 0.04 0.00 80 1023.8
20260503042834 57 111 1.0 5.0 0.00 0.04 0.00 82 1023.8
20260503042329 57 108 0.0 5.0 0.00 0.04 0.00 83 1023.9
20260503041826 58 137 0.0 3.0 0.00 0.04 0.00 84 1023.9
20260503041323 58 141 0.0 0.0 0.00 0.04 0.00 84 1023.8
20260503040823 58 141 0.0 0.0 0.00 0.04 0.00 85 1023.8
20260503040323 58 141 0.0 0.0 0.00 0.04 0.00 85 1023.8
20260503040054 58 141 0.0 0.0 0.00 0.04 0.00 85 1023.8
20260503035553 58 141 0.0 0.0 0.00 0.04 0.00 85 1023.7
20260503034828 58 141 0.0 0.0 0.00 0.04 0.00 84 1023.7
20260503034821 58 141 0.0 0.0 0.00 0.04 0.00 84 1023.7
20260503034430 58 141 0.0 0.0 0.00 0.04 0.00 84 1023.7
20260503033320 58 143 0.0 0.0 0.00 0.04 0.00 85 1023.6
20260503032820 58 143 0.0 0.0 0.00 0.04 0.00 86 1023.7
20260503032321 58 143 0.0 0.0 0.00 0.04 0.00 86 1023.6
20260503031834 59 143 0.0 0.0 0.00 0.04 0.00 87 1023.6
20260503031319 59 143 0.0 0.0 0.00 0.04 0.00 87 1023.6
20260503030331 59 143 0.0 0.0 0.00 0.04 0.00 86 1023.5
20260503025811 59 143 0.0 0.0 0.00 0.04 0.85 86 1023.5
20260503025259 59 143 0.0 0.0 0.00 0.04 0.85 85 1023.4
20260503024749 59 143 0.0 0.0 0.00 0.04 0.85 85 1023.5
20260503024240 59 143 0.0 0.0 0.00 0.04 0.85 84 1023.4
20260503023725 59 143 0.0 0.0 0.00 0.04 0.85 83 1023.4
20260503023448 60 143 0.0 0.0 0.00 0.04 0.85 83 1023.4
20260503022938 60 144 0.0 0.0 0.00 0.04 0.85 83 1023.3
20260503022154 60 193 0.0 0.0 0.00 0.04 0.85 82 1023.2
20260503021640 60 191 0.0 0.0 0.00 0.04 0.85 80 1023.2
20260503021125 60 199 0.0 0.0 0.00 0.04 0.85 80 1023.2
20260503020847 60 200 0.0 0.0 0.00 0.04 0.85 80 1023.1
20260503020109 60 201 0.0 0.0 0.00 0.04 0.85 80 1023.1
20260503015549 60 199 0.0 0.0 0.00 0.04 0.85 81 1023.1
20260503015040 60 199 0.0 0.0 0.00 0.04 0.85 82 1023.1
20260503014532 61 206 0.0 0.0 0.00 0.04 0.85 84 1022.9
20260503014019 61 207 0.0 0.0 0.00 0.04 0.85 85 1022.9
20260503012959 62 253 0.0 0.0 0.00 0.04 0.85 84 1022.8
20260503012442 62 253 0.0 0.0 0.00 0.04 0.85 83 1022.7
20260503011932 63 253 0.0 0.0 0.00 0.04 0.85 82 1022.6
20260503011422 63 185 0.0 0.0 0.00 0.04 0.85 80 1022.5
20260503010912 63 185 0.0 0.0 0.00 0.04 0.85 80 1022.4
20260503010904 63 185 0.0 0.0 0.00 0.04 0.85 80 1022.4
20260503005852 64 185 0.0 0.0 0.00 0.04 0.85 80 1022.3
20260503005612 64 185 0.0 0.0 0.00 0.04 0.85 80 1022.4
20260503004831 64 185 0.0 0.0 0.00 0.04 0.85 80 1022.2
20260503004317 64 185 0.0 0.0 0.00 0.04 0.85 80 1022.2
20260503004039 64 193 0.0 0.0 0.00 0.04 0.85 80 1022.1
20260503003256 64 219 0.0 0.0 0.00 0.04 0.85 80 1022.0
20260503002746 64 153 0.0 0.0 0.00 0.04 0.85 82 1022.0
20260503002235 65 153 0.0 0.0 0.00 0.04 0.85 82 1021.7
20260503001729 65 153 0.0 0.0 0.00 0.04 0.85 82 1021.6
20260503001718 65 122 0.0 0.0 0.00 0.04 0.85 81 1021.4
20260503000712 65 124 0.0 0.0 0.00 0.04 0.85 82 1021.4
20260503000207 65 120 0.0 0.0 0.00 0.04 0.85 81 1021.4
20260502235136 66 168 0.0 0.0 0.00 0.04 0.85 80 1021.3
20260502234634 66 169 0.0 0.0 0.00 0.04 0.85 80 1021.3
20260502234133 66 169 0.0 0.0 0.00 0.04 0.85 79 1021.2
20260502233903 66 168 0.0 0.0 0.00 0.04 0.85 78 1021.1
20260502233128 66 168 0.0 0.0 0.00 0.04 0.85 78 1021.1
20260502232632 66 168 0.0 0.0 0.00 0.04 0.85 78 1021.0
20260502232627 66 168 0.0 0.0 0.00 0.04 0.85 78 1021.0
20260502231625 66 168 0.0 0.0 0.00 0.04 0.85 78 1021.0
20260502231354 66 120 0.0 0.0 0.00 0.04 0.85 79 1020.9
20260502231230 66 180 0.0 0.0 0.00 0.04 0.85 79 1020.8
20260502230122 66 155 0.0 0.0 0.00 0.04 0.85 79 1020.8
20260502225622 66 144 0.0 0.0 0.00 0.04 0.85 80 1020.7
20260502225123 66 117 0.0 0.0 0.00 0.04 0.85 81 1020.6
20260502224853 66 127 0.0 0.0 0.00 0.04 0.85 82 1020.5
20260502224121 66 104 0.0 0.0 0.00 0.04 0.85 82 1020.5
20260502223622 66 104 0.0 0.0 0.00 0.04 0.85 83 1020.5
20260502222119 67 163 0.0 0.0 0.00 0.04 0.85 83 1020.3
20260502221616 67 175 0.0 0.0 0.00 0.04 0.85 83 1020.1
20260502221115 67 175 0.0 0.0 0.00 0.04 0.85 83 1020.0
20260502220614 67 207 0.0 0.0 0.00 0.04 0.85 83 1020.0
20260502220114 67 207 0.0 0.0 0.00 0.04 0.85 83 1020.0
20260502215614 67 206 0.0 0.0 0.00 0.04 0.85 83 1019.9
20260502215114 67 206 0.0 0.0 0.00 0.04 0.85 83 1019.8
20260502214614 68 206 0.0 0.0 0.00 0.04 0.85 83 1019.7
20260502214112 68 195 0.0 0.0 0.00 0.04 0.85 82 1019.7
20260502213612 68 189 0.0 0.0 0.00 0.04 0.85 82 1019.7
20260502213110 68 218 0.0 0.0 0.00 0.04 0.85 82 1019.6
20260502212841 68 202 0.0 0.0 0.00 0.04 0.85 82 1019.5
20260502212111 69 207 0.0 1.0 0.00 0.04 0.85 81 1019.3
20260502211611 69 225 0.0 1.0 0.00 0.04 0.85 81 1019.3
20260502211111 69 222 0.0 0.0 0.00 0.04 0.85 81 1019.2
20260502210611 69 244 0.0 0.0 0.00 0.04 0.85 80 1019.0
20260502210110 70 246 0.0 0.0 0.00 0.04 0.85 80 1019.1
20260502205609 70 241 0.0 0.0 0.00 0.04 0.85 80 1019.0
20260502205108 70 232 0.0 0.0 0.00 0.04 0.85 80 1019.1
20260502204609 71 231 0.0 0.0 0.00 0.04 0.85 79 1019.0
20260502204109 71 220 0.0 0.0 0.00 0.04 0.85 79 1019.0